Aeroporto :
LOGIN :

Iscrizione | Disclaimer

   EN    FR    IT 

 










Sommario :    VFR   VFR Marginale   IFR   IFR Intensivo   IFR Molto Intensivo
Visibilità : 
Base nubi : 
>= 8 km
>= 3000ft
5 / 8 km
1000 / 3000 ft
1500m / 5 km
500 / 1000 ft
800 / 1500m
200 / 500 ft
< 800m
< 200 ft
Simboli :   Temporali  Nebbia  Neve Forte  Precipitazioni Forti  Vento > 20 kt
SIGMETs :   Varie  Temporali  Ghiacco  Turbolenza  Onda orograficha  Ceneri Vulcaniche






- Altitudine del aeroporto : 238 ft
- Codice IATA : FAB


EGLF - Farnborough

ULTIMO METAR :
  • 221350Z AUTO 32007KT 280V360 9999 OVC015/// 05/02 Q1037

METARs OBSOLETI :
  • 221320Z AUTO 33007KT 300V360 9999 OVC014/// 05/02 Q1038
  • 221250Z AUTO 30007KT 9999 OVC014/// 05/02 Q1038
  • 221220Z AUTO 30008KT 270V350 9999 OVC015/// 05/02 Q1038
  • 221150Z AUTO 32007KT 290V350 9999 OVC015/// 06/02 Q1037
  • 221120Z AUTO 31007KT 280V340 9999 OVC015/// 05/02 Q1038

TAF AMD TAF EGLF
Valido dal 22 a 12 ore il 22 a 20 ore UTC


221232Z 2212/2220 30006KT 9999 BKN020
TEMPO 2212/2215 BKN014
ATIS : +44 09063 800 400 (*282)



MetMap, La meteo Aeronautica in un colpo d'occhio ! - Copyright ORBIFLY Dicembre 2007 - Disclaimer

ORBIFLY MET'MAP TEAM :

Programmazione e sviluppo : Alexandra Zaïnal
Concezione : Baudouin d'Aumeries
Aiuto per la programmazione : Marc-Olivier Méhu
Supporto tecnico e logistico : Manuel Goepfert
Aiuto per la traduzione : Arnaldo La Scala

Contatto : metmap@orbifly.com




FONTI E CREDITI :

   NOAA